,,,PA_Meas_PMT16A,,PR_Meas_QMR101_102,,RH_Meas_QMH101,,SR_Meas_QMS101,,TA_Meas_QMH101,,GenWind,,GenWind,
date,time,status,PA,status,PR,status,RH,status,SR,status,TA,status,DirAvg,status,SpdAvg,
2010-01-20, 00:00:04,VALID,1003.87,VALID,0,VALID,93.9893,VALID,0,VALID,23.2329,VALID,111,VALID,0.729297,
2010-01-20, 00:01:04,VALID,1003.85,VALID,0,VALID,93.974,VALID,0,VALID,23.2329,VALID,107,VALID,0.783984,
2010-01-20, 00:02:04,VALID,1003.84,VALID,0,VALID,93.974,VALID,0,VALID,23.2524,VALID,107,VALID,0.515625,
2010-01-20, 00:03:04,VALID,1003.83,VALID,0,VALID,94.0122,VALID,0,VALID,23.2719,VALID,107,VALID,0.241406,
2010-01-20, 00:04:04,VALID,1003.83,VALID,0,VALID,94.0274,VALID,0,VALID,23.2932,VALID,107,VALID,0.586719,
2010-01-20, 00:05:04,VALID,1003.78,VALID,0.5,VALID,94.0351,VALID,0,VALID,23.311,VALID,104,VALID,0.770312,
2010-01-20, 00:06:04,VALID,1003.79,VALID,0,VALID,94.0351,VALID,0,VALID,23.311,VALID,98,VALID,0.953125,
2010-01-20, 00:07:04,VALID,1003.79,VALID,0,VALID,94.0274,VALID,0,VALID,23.3305,VALID,93,VALID,0.645312,
2010-01-20, 00:08:04,VALID,1003.81,VALID,0,VALID,94.0274,VALID,0,VALID,23.35,VALID,93,VALID,0.919531,
2010-01-20, 00:09:04,VALID,1003.78,VALID,0,VALID,94.0274,VALID,0,VALID,23.3695,VALID,99,VALID,0.953125,
2010-01-20, 00:10:04,VALID,1003.79,VALID,0,VALID,93.974,VALID,0.112286,VALID,23.35,VALID,99,VALID,1.06797,
2010-01-20, 00:11:04,VALID,1003.72,VALID,0,VALID,93.9893,VALID,0,VALID,23.3305,VALID,99,VALID,1.06289,
2010-01-20, 00:12:04,VALID,1003.72,VALID,0,VALID,94.0198,VALID,0,VALID,23.3305,VALID,100,VALID,0.836719,
2010-01-20, 00:13:04,VALID,1003.71,VALID,0,VALID,94.0045,VALID,0,VALID,23.3305,VALID,102,VALID,0.85,
2010-01-20, 00:14:04,VALID,1003.71,VALID,0,VALID,94.0274,VALID,0,VALID,23.35,VALID,102,VALID,0.455469,
2010-01-20, 00:15:04,VALID,1003.74,VALID,0,VALID,94.0122,VALID,0,VALID,23.35,VALID,103,VALID,0.01875,
2010-01-20, 00:16:04,VALID,1003.73,VALID,0,VALID,94.0274,VALID,0,VALID,23.35,VALID,100,VALID,0.781641,
2010-01-20, 00:17:04,VALID,1003.71,VALID,0,VALID,94.0122,VALID,0,VALID,23.35,VALID,114,VALID,0.757813,
2010-01-20, 00:18:04,VALID,1003.69,VALID,0,VALID,94.0045,VALID,0,VALID,23.35,VALID,118,VALID,1.04336,
2010-01-20, 00:19:04,VALID,1003.65,VALID,0,VALID,94.0045,VALID,0,VALID,23.3092,VALID,122,VALID,0.695313,
2010-01-20, 00:20:04,VALID,1003.65,VALID,0,VALID,94.0198,VALID,0,VALID,23.3092,VALID,120,VALID,0.592578,
2010-01-20, 00:21:04,VALID,1003.63,VALID,0,VALID,94.0427,VALID,0,VALID,23.311,VALID,117,VALID,0.783984,
2010-01-20, 00:22:04,VALID,1003.64,VALID,0,VALID,94.0656,VALID,0,VALID,23.3092,VALID,116,VALID,0.818359,
2010-01-20, 00:23:04,VALID,1003.64,VALID,0,VALID,94.058,VALID,0,VALID,23.35,VALID,113,VALID,0.573438,
2010-01-20, 00:24:04,VALID,1003.63,VALID,0,VALID,94.0274,VALID,0,VALID,23.3695,VALID,104,VALID,0.907812,
2010-01-20, 00:25:04,VALID,1003.67,VALID,0,VALID,94.0732,VALID,0,VALID,23.3872,VALID,95,VALID,0.835547,
2010-01-20, 00:26:04,VALID,1003.68,VALID,0,VALID,94.058,VALID,0,VALID,23.4085,VALID,94,VALID,0.822266,
2010-01-20, 00:27:04,VALID,1003.67,VALID,0,VALID,94.0656,VALID,0,VALID,23.428,VALID,105,VALID,0.879297,
2010-01-20, 00:28:04,VALID,1003.65,VALID,0,VALID,94.0656,VALID,0,VALID,23.4475,VALID,96,VALID,0.917578,
2010-01-20, 00:29:04,VALID,1003.62,VALID,0,VALID,94.0656,VALID,0,VALID,23.4671,VALID,94,VALID,0.682422,
2010-01-20, 00:30:04,VALID,1003.58,VALID,0,VALID,94.0732,VALID,0,VALID,23.4866,VALID,100,VALID,0.886328,
2010-01-20, 00:31:04,VALID,1003.56,VALID,0,VALID,94.0503,VALID,0,VALID,23.4671,VALID,93,VALID,1.01914,
2010-01-20, 00:32:04,VALID,1003.53,VALID,0,VALID,94.0198,VALID,0,VALID,23.4671,VALID,90,VALID,0.915625,
2010-01-20, 00:33:04,VALID,1003.52,VALID,0,VALID,93.9969,VALID,0,VALID,23.4475,VALID,64,VALID,1.08125,
2010-01-20, 00:34:04,VALID,1003.5,VALID,0,VALID,94.0198,VALID,0,VALID,23.389,VALID,63,VALID,1.31211,
2010-01-20, 00:35:04,VALID,1003.49,VALID,0,VALID,93.9969,VALID,0,VALID,23.35,VALID,67,VALID,1.28086,
2010-01-20, 00:36:04,VALID,1003.44,VALID,0,VALID,93.9969,VALID,0,VALID,23.3092,VALID,83,VALID,1.11836,
2010-01-20, 00:37:04,VALID,1003.41,VALID,0,VALID,94.0351,VALID,0,VALID,23.311,VALID,95,VALID,0.825,
2010-01-20, 00:38:04,VALID,1003.39,VALID,0,VALID,94.0427,VALID,0,VALID,23.311,VALID,123,VALID,0.907812,
2010-01-20, 00:39:04,VALID,1003.35,VALID,0,VALID,94.0351,VALID,0,VALID,23.3305,VALID,126,VALID,1.2457,
2010-01-20, 00:40:04,VALID,1003.29,VALID,0,VALID,94.0198,VALID,0,VALID,23.311,VALID,124,VALID,1.12383,
2010-01-20, 00:41:04,VALID,1003.28,VALID,0,VALID,94.0427,VALID,0,VALID,23.2897,VALID,135,VALID,1.42461,
2010-01-20, 00:42:04,VALID,1003.28,VALID,0,VALID,94.0732,VALID,0,VALID,23.3305,VALID,138,VALID,0.859375,
2010-01-20, 00:43:04,VALID,1003.27,VALID,0,VALID,94.0656,VALID,0,VALID,23.35,VALID,125,VALID,0.911328,
2010-01-20, 00:44:04,VALID,1003.27,VALID,0,VALID,94.0503,VALID,0,VALID,23.3287,VALID,118,VALID,1.41875,
2010-01-20, 00:45:04,VALID,1003.27,VALID,0,VALID,94.058,VALID,0,VALID,23.35,VALID,112,VALID,1.275,
2010-01-20, 00:46:04,VALID,1003.29,VALID,0,VALID,94.0656,VALID,0,VALID,23.35,VALID,118,VALID,1.44883,
2010-01-20, 00:47:04,VALID,1003.28,VALID,0,VALID,94.0656,VALID,0,VALID,23.35,VALID,100,VALID,1.02461,
2010-01-20, 00:48:04,VALID,1003.28,VALID,0,VALID,94.0732,VALID,0,VALID,23.3482,VALID,106,VALID,1.38047,
2010-01-20, 00:49:04,VALID,1003.21,VALID,0,VALID,94.0732,VALID,0,VALID,23.389,VALID,100,VALID,1.58281,
2010-01-20, 00:50:04,VALID,1003.22,VALID,0,VALID,94.0732,VALID,0,VALID,23.4085,VALID,105,VALID,1.3125,
2010-01-20, 00:51:04,VALID,1003.23,VALID,0,VALID,94.0503,VALID,0,VALID,23.4085,VALID,105,VALID,1.7332,
2010-01-20, 00:52:04,VALID,1003.19,VALID,0,VALID,94.0274,VALID,0,VALID,23.4067,VALID,103,VALID,1.66406,
2010-01-20, 00:53:04,VALID,1003.2,VALID,0,VALID,94.0732,VALID,0,VALID,23.3872,VALID,95,VALID,0.920703,
2010-01-20, 00:54:04,VALID,1003.16,VALID,0,VALID,94.058,VALID,0.112286,VALID,23.4263,VALID,103,VALID,1.21992,
2010-01-20, 00:55:04,VALID,1003.18,VALID,0,VALID,94.0656,VALID,0,VALID,23.4475,VALID,101,VALID,1.41406,
2010-01-20, 00:56:04,VALID,1003.13,VALID,0,VALID,94.0503,VALID,0,VALID,23.4671,VALID,103,VALID,1.49727,
2010-01-20, 00:57:04,VALID,1003.17,VALID,0,VALID,94.0656,VALID,0,VALID,23.4653,VALID,111,VALID,1.07969,
2010-01-20, 00:58:04,VALID,1003.15,VALID,0,VALID,94.0198,VALID,0,VALID,23.4866,VALID,106,VALID,1.66445,
2010-01-20, 00:59:04,VALID,1003.16,VALID,0,VALID,94.0351,VALID,0,VALID,23.4671,VALID,98,VALID,1.18594,
2010-01-20, 01:00:04,VALID,1003.12,VALID,0,VALID,93.9664,VALID,0,VALID,23.4671,VALID,97,VALID,1.32187,
2010-01-20, 01:01:04,VALID,1003.09,VALID,0,VALID,94.0351,VALID,0,VALID,23.4866,VALID,98,VALID,0.967188,
2010-01-20, 01:02:04,VALID,1003.01,VALID,0,VALID,94.0351,VALID,0,VALID,23.5061,VALID,96,VALID,1.00078,
2010-01-20, 01:03:04,VALID,1002.98,VALID,0,VALID,94.0274,VALID,0,VALID,23.4866,VALID,101,VALID,1.26914,
2010-01-20, 01:04:04,VALID,1002.93,VALID,0,VALID,94.0198,VALID,0,VALID,23.5061,VALID,102,VALID,1.45039,
2010-01-20, 01:05:04,VALID,1002.9,VALID,0,VALID,94.0427,VALID,0,VALID,23.5061,VALID,92,VALID,0.832031,
2010-01-20, 01:06:04,VALID,1002.9,VALID,0,VALID,94.0427,VALID,0,VALID,23.5256,VALID,102,VALID,1.12305,
2010-01-20, 01:07:04,VALID,1002.89,VALID,0,VALID,94.0351,VALID,0,VALID,23.5451,VALID,96,VALID,1.30469,
2010-01-20, 01:08:04,VALID,1002.89,VALID,0,VALID,94.0274,VALID,0,VALID,23.5451,VALID,99,VALID,1.02891,
2010-01-20, 01:09:04,VALID,1002.88,VALID,0,VALID,94.0274,VALID,0,VALID,23.5451,VALID,95,VALID,1.18438,
2010-01-20, 01:10:04,VALID,1002.87,VALID,0,VALID,93.9817,VALID,0,VALID,23.5451,VALID,92,VALID,1.16445,
2010-01-20, 01:11:04,VALID,1002.91,VALID,0,VALID,93.9969,VALID,0,VALID,23.5451,VALID,95,VALID,1.23359,
2010-01-20, 01:12:04,VALID,1002.88,VALID,0,VALID,94.0045,VALID,0,VALID,23.5256,VALID,97,VALID,1.26289,
2010-01-20, 01:13:04,VALID,1002.89,VALID,0,VALID,94.0198,VALID,0,VALID,23.5256,VALID,95,VALID,0.7,
2010-01-20, 01:14:04,VALID,1002.87,VALID,0,VALID,94.0274,VALID,0,VALID,23.5433,VALID,93,VALID,0.473437,
2010-01-20, 01:15:04,VALID,1002.87,VALID,0,VALID,94.0045,VALID,0,VALID,23.5646,VALID,74,VALID,0.825,
2010-01-20, 01:16:04,VALID,1002.84,VALID,0,VALID,93.9969,VALID,0,VALID,23.5433,VALID,77,VALID,0.792578,
2010-01-20, 01:17:04,VALID,1002.77,VALID,0,VALID,94.0351,VALID,0,VALID,23.5646,VALID,90,VALID,0.569531,
2010-01-20, 01:18:04,VALID,1002.76,VALID,0,VALID,94.0351,VALID,0,VALID,23.6036,VALID,102,VALID,0.835938,
2010-01-20, 01:19:04,VALID,1002.73,VALID,0,VALID,93.9817,VALID,0,VALID,23.5841,VALID,107,VALID,1.54336,
2010-01-20, 01:20:04,VALID,1002.75,VALID,0,VALID,93.9893,VALID,0,VALID,23.5451,VALID,109,VALID,0.969141,
2010-01-20, 01:21:04,VALID,1002.71,VALID,0,VALID,93.9817,VALID,0,VALID,23.5646,VALID,118,VALID,1.40898,
2010-01-20, 01:22:04,VALID,1002.69,VALID,0,VALID,93.9969,VALID,0,VALID,23.5646,VALID,125,VALID,0.872266,
2010-01-20, 01:23:04,VALID,1002.68,VALID,0,VALID,93.9893,VALID,0,VALID,23.5841,VALID,112,VALID,1.17813,
2010-01-20, 01:24:04,VALID,1002.66,VALID,0,VALID,93.974,VALID,0,VALID,23.5451,VALID,112,VALID,1.46445,
2010-01-20, 01:25:04,VALID,1002.67,VALID,0,VALID,93.9435,VALID,0,VALID,23.5256,VALID,109,VALID,1.65469,
2010-01-20, 01:26:04,VALID,1002.64,VALID,0,VALID,93.9664,VALID,0,VALID,23.5061,VALID,106,VALID,1.2543,
2010-01-20, 01:27:04,VALID,1002.66,VALID,0,VALID,93.9359,VALID,0,VALID,23.5256,VALID,112,VALID,1.31094,
2010-01-20, 01:28:04,VALID,1002.65,VALID,0,VALID,93.9359,VALID,0,VALID,23.5061,VALID,109,VALID,0.928125,
2010-01-20, 01:29:04,VALID,1002.62,VALID,0,VALID,93.9588,VALID,0,VALID,23.5061,VALID,115,VALID,1.18906,
2010-01-20, 01:30:04,VALID,1002.61,VALID,0,VALID,93.9435,VALID,0,VALID,23.5061,VALID,119,VALID,1.54414,
2010-01-20, 01:31:04,VALID,1002.59,VALID,0,VALID,93.9283,VALID,0,VALID,23.5061,VALID,129,VALID,1.43359,
2010-01-20, 01:32:04,VALID,1002.58,VALID,0,VALID,93.9206,VALID,0,VALID,23.4866,VALID,133,VALID,1.36172,
2010-01-20, 01:33:04,VALID,1002.56,VALID,0,VALID,93.9054,VALID,0,VALID,23.4866,VALID,128,VALID,1.21445,
2010-01-20, 01:34:04,VALID,1002.55,VALID,0,VALID,93.9054,VALID,0,VALID,23.4866,VALID,128,VALID,1.59336,
2010-01-20, 01:35:04,VALID,1002.51,VALID,0,VALID,93.8825,VALID,0,VALID,23.4866,VALID,133,VALID,1.20313,
2010-01-20, 01:36:04,VALID,1002.5,VALID,0,VALID,93.8977,VALID,0,VALID,23.4866,VALID,128,VALID,1.50039,
2010-01-20, 01:37:04,VALID,1002.43,VALID,0,VALID,93.9054,VALID,0,VALID,23.4866,VALID,131,VALID,1.38398,
2010-01-20, 01:38:04,VALID,1002.44,VALID,0,VALID,93.8748,VALID,0,VALID,23.4866,VALID,128,VALID,0.965625,
2010-01-20, 01:39:04,VALID,1002.46,VALID,0,VALID,93.913,VALID,0,VALID,23.4653,VALID,126,VALID,1.24023,
2010-01-20, 01:40:04,VALID,1002.44,VALID,0,VALID,93.8825,VALID,0,VALID,23.4671,VALID,129,VALID,1.5543,
2010-01-20, 01:41:04,VALID,1002.47,VALID,0,VALID,93.8901,VALID,0,VALID,23.4475,VALID,122,VALID,1.19219,
2010-01-20, 01:42:04,VALID,1002.44,VALID,0,VALID,93.8825,VALID,0,VALID,23.4671,VALID,112,VALID,1.31172,
2010-01-20, 01:43:04,VALID,1002.43,VALID,0,VALID,93.8901,VALID,0,VALID,23.4475,VALID,120,VALID,1.14648,
2010-01-20, 01:44:04,VALID,1002.44,VALID,0,VALID,93.8596,VALID,0,VALID,23.4475,VALID,120,VALID,1.12891,
2010-01-20, 01:45:04,VALID,1002.45,VALID,0,VALID,93.8901,VALID,0,VALID,23.4475,VALID,116,VALID,0.733594,
2010-01-20, 01:46:04,VALID,1002.44,VALID,0,VALID,93.8901,VALID,0,VALID,23.4475,VALID,113,VALID,0.967188,
2010-01-20, 01:47:04,VALID,1002.45,VALID,0,VALID,93.8672,VALID,0,VALID,23.4475,VALID,118,VALID,0.671484,
2010-01-20, 01:48:04,VALID,1002.46,VALID,0,VALID,93.8825,VALID,0,VALID,23.428,VALID,118,VALID,0.439063,
2010-01-20, 01:49:04,VALID,1002.5,VALID,0,VALID,93.8901,VALID,0,VALID,23.4085,VALID,118,VALID,0.193359,
2010-01-20, 01:50:04,VALID,1002.52,VALID,0,VALID,93.8825,VALID,0,VALID,23.428,VALID,116,VALID,0.371875,
2010-01-20, 01:51:04,VALID,1002.53,VALID,0,VALID,93.8901,VALID,0,VALID,23.4085,VALID,97,VALID,0.509375,
2010-01-20, 01:52:04,VALID,1002.49,VALID,0,VALID,93.9054,VALID,0,VALID,23.389,VALID,93,VALID,0.696875,
2010-01-20, 01:53:04,VALID,1002.49,VALID,0,VALID,93.8977,VALID,0,VALID,23.389,VALID,91,VALID,0.486328,
2010-01-20, 01:54:04,VALID,1002.5,VALID,0,VALID,93.9206,VALID,0,VALID,23.389,VALID,90,VALID,0.549219,
2010-01-20, 01:55:04,VALID,1002.53,VALID,0,VALID,93.913,VALID,0,VALID,23.3695,VALID,54,VALID,0.594922,
2010-01-20, 01:56:04,VALID,1002.56,VALID,0,VALID,93.913,VALID,0,VALID,23.35,VALID,40,VALID,0.518359,
2010-01-20, 01:57:04,VALID,1002.54,VALID,0,VALID,93.8825,VALID,0,VALID,23.3305,VALID,37,VALID,0.579297,
2010-01-20, 01:58:04,VALID,1002.58,VALID,0,VALID,93.913,VALID,0,VALID,23.2915,VALID,37,VALID,0.552344,
2010-01-20, 01:59:04,VALID,1002.57,VALID,0,VALID,93.8825,VALID,0,VALID,23.2524,VALID,23,VALID,0.675,
2010-01-20, 02:00:04,VALID,1002.53,VALID,0,VALID,93.913,VALID,0,VALID,23.2524,VALID,20,VALID,0.466016,
2010-01-20, 02:01:04,VALID,1002.54,VALID,0,VALID,93.913,VALID,0,VALID,23.2524,VALID,20,VALID,0.193359,
2010-01-20, 02:02:04,VALID,1002.49,VALID,0,VALID,93.913,VALID,0,VALID,23.2134,VALID,20,VALID,0,
2010-01-20, 02:03:04,VALID,1002.5,VALID,0,VALID,93.913,VALID,0,VALID,23.2134,VALID,20,VALID,0,
2010-01-20, 02:04:04,VALID,1002.51,VALID,0,VALID,93.9435,VALID,0,VALID,23.1939,VALID,20,VALID,0,
2010-01-20, 02:05:04,VALID,1002.53,VALID,0,VALID,93.9511,VALID,0,VALID,23.1939,VALID,20,VALID,0,
2010-01-20, 02:06:04,VALID,1002.5,VALID,0,VALID,93.974,VALID,0,VALID,23.1939,VALID,20,VALID,0.162109,
2010-01-20, 02:07:04,VALID,1002.51,VALID,0,VALID,93.9511,VALID,0,VALID,23.1939,VALID,20,VALID,0,
2010-01-20, 02:08:04,VALID,1002.49,VALID,0,VALID,93.9435,VALID,0,VALID,23.1744,VALID,20,VALID,0,
2010-01-20, 02:09:04,VALID,1002.52,VALID,0,VALID,93.9664,VALID,0,VALID,23.1744,VALID,20,VALID,0,
2010-01-20, 02:10:04,VALID,1002.52,VALID,0,VALID,93.9511,VALID,0,VALID,23.1549,VALID,20,VALID,0.150391,
2010-01-20, 02:11:04,VALID,1002.47,VALID,0,VALID,93.974,VALID,0,VALID,23.1549,VALID,20,VALID,0.214453,
2010-01-20, 02:12:04,VALID,1002.47,VALID,0,VALID,93.9893,VALID,0,VALID,23.1744,VALID,20,VALID,0.219922,
2010-01-20, 02:13:04,VALID,1002.43,VALID,0,VALID,93.9893,VALID,0,VALID,23.1762,VALID,20,VALID,0.314453,
2010-01-20, 02:14:04,VALID,1002.43,VALID,0,VALID,93.9969,VALID,0,VALID,23.1566,VALID,20,VALID,0.238281,
2010-01-20, 02:15:04,VALID,1002.44,VALID,0,VALID,93.9969,VALID,0,VALID,23.1566,VALID,20,VALID,0,
2010-01-20, 02:16:04,VALID,1002.45,VALID,0,VALID,94.0045,VALID,0,VALID,23.1584,VALID,20,VALID,0.200781,
2010-01-20, 02:17:04,VALID,1002.49,VALID,0,VALID,94.0351,VALID,0,VALID,23.1762,VALID,20,VALID,0.432813,
2010-01-20, 02:18:04,VALID,1002.45,VALID,0,VALID,94.0122,VALID,0,VALID,23.1762,VALID,20,VALID,0.465625,
2010-01-20, 02:19:04,VALID,1002.48,VALID,0,VALID,94.0045,VALID,0,VALID,23.1371,VALID,18,VALID,0.604297,
2010-01-20, 02:20:04,VALID,1002.46,VALID,0,VALID,93.9893,VALID,0,VALID,23.0786,VALID,17,VALID,0.6625,
2010-01-20, 02:21:04,VALID,1002.49,VALID,0,VALID,93.9969,VALID,0,VALID,23.0804,VALID,17,VALID,0.710938,
2010-01-20, 02:22:04,VALID,1002.5,VALID,0,VALID,94.0274,VALID,0,VALID,23.0006,VALID,16,VALID,0.788281,
2010-01-20, 02:23:04,VALID,1002.5,VALID,0,VALID,94.0427,VALID,0,VALID,23.0006,VALID,14,VALID,0.835156,
2010-01-20, 02:24:04,VALID,1002.53,VALID,0,VALID,94.058,VALID,0,VALID,23.0218,VALID,13,VALID,0.830078,
2010-01-20, 02:25:04,VALID,1002.54,VALID,0,VALID,94.0503,VALID,0,VALID,23.0006,VALID,13,VALID,0.817578,
2010-01-20, 02:26:04,VALID,1002.56,VALID,0,VALID,94.1037,VALID,0,VALID,23.0006,VALID,13,VALID,0.885156,
2010-01-20, 02:27:04,VALID,1002.54,VALID,0,VALID,94.0961,VALID,0,VALID,23.0006,VALID,13,VALID,0.860547,
2010-01-20, 02:28:04,VALID,1002.51,VALID,0,VALID,94.1037,VALID,0,VALID,23.0183,VALID,13,VALID,0.636719,
2010-01-20, 02:29:04,VALID,1002.5,VALID,0,VALID,94.119,VALID,0,VALID,23.0378,VALID,13,VALID,0.490625,
2010-01-20, 02:30:04,VALID,1002.51,VALID,0,VALID,94.119,VALID,0,VALID,23.0769,VALID,13,VALID,0.195313,
2010-01-20, 02:31:04,VALID,1002.5,VALID,0,VALID,94.119,VALID,0,VALID,23.0769,VALID,13,VALID,0.218359,
2010-01-20, 02:32:04,VALID,1002.53,VALID,0,VALID,94.1114,VALID,0,VALID,23.1159,VALID,13,VALID,0.192188,
2010-01-20, 02:33:04,VALID,1002.52,VALID,0,VALID,94.1114,VALID,0,VALID,23.1159,VALID,13,VALID,0.216797,
2010-01-20, 02:34:04,VALID,1002.52,VALID,0,VALID,94.1037,VALID,0,VALID,23.1354,VALID,13,VALID,0,
2010-01-20, 02:35:04,VALID,1002.48,VALID,0,VALID,94.119,VALID,0,VALID,23.1354,VALID,13,VALID,0,
2010-01-20, 02:36:04,VALID,1002.49,VALID,0,VALID,94.1114,VALID,0,VALID,23.1354,VALID,13,VALID,0,
2010-01-20, 02:37:04,VALID,1002.47,VALID,0,VALID,94.1114,VALID,0,VALID,23.1549,VALID,13,VALID,0,
2010-01-20, 02:38:04,VALID,1002.47,VALID,0,VALID,94.1266,VALID,0,VALID,23.1744,VALID,13,VALID,0.322656,
2010-01-20, 02:39:04,VALID,1002.46,VALID,0,VALID,94.1114,VALID,0,VALID,23.1531,VALID,13,VALID,0.460156,
2010-01-20, 02:40:04,VALID,1002.45,VALID,0,VALID,94.1343,VALID,0,VALID,23.1549,VALID,13,VALID,0.596875,
2010-01-20, 02:41:04,VALID,1002.47,VALID,0,VALID,94.1114,VALID,0,VALID,23.1354,VALID,13,VALID,0.894531,
2010-01-20, 02:42:04,VALID,1002.45,VALID,0,VALID,94.1266,VALID,0,VALID,23.1176,VALID,13,VALID,1.00781,
2010-01-20, 02:43:04,VALID,1002.45,VALID,0,VALID,94.1648,VALID,0,VALID,23.1159,VALID,13,VALID,0.973437,
2010-01-20, 02:44:04,VALID,1002.43,VALID,0,VALID,94.1266,VALID,0,VALID,23.0769,VALID,19,VALID,1.01719,
2010-01-20, 02:45:04,VALID,1002.42,VALID,0,VALID,94.1343,VALID,0,VALID,23.0573,VALID,27,VALID,0.930469,
2010-01-20, 02:46:04,VALID,1002.38,VALID,0,VALID,94.0885,VALID,0,VALID,22.9988,VALID,27,VALID,0.954297,
2010-01-20, 02:47:04,VALID,1002.38,VALID,0,VALID,94.1419,VALID,0,VALID,22.9598,VALID,27,VALID,0.912109,
2010-01-20, 02:48:04,VALID,1002.34,VALID,0,VALID,94.1571,VALID,0,VALID,22.9793,VALID,31,VALID,0.851953,
2010-01-20, 02:49:04,VALID,1002.36,VALID,0,VALID,94.18,VALID,0,VALID,22.9793,VALID,37,VALID,0.880078,
2010-01-20, 02:50:04,VALID,1002.35,VALID,0,VALID,94.18,VALID,0,VALID,22.9793,VALID,53,VALID,0.834766,
2010-01-20, 02:51:04,VALID,1002.34,VALID,0,VALID,94.1648,VALID,0,VALID,22.9598,VALID,53,VALID,0.822266,
2010-01-20, 02:52:04,VALID,1002.33,VALID,0,VALID,94.1419,VALID,0,VALID,22.9598,VALID,53,VALID,0.511328,
2010-01-20, 02:53:04,VALID,1002.32,VALID,0,VALID,94.1343,VALID,0,VALID,22.9403,VALID,53,VALID,0.369531,
2010-01-20, 02:54:04,VALID,1002.32,VALID,0,VALID,94.1419,VALID,0,VALID,22.9013,VALID,59,VALID,0.491797,
2010-01-20, 02:55:04,VALID,1002.29,VALID,0,VALID,94.1724,VALID,0,VALID,22.9225,VALID,68,VALID,0.491797,
2010-01-20, 02:56:04,VALID,1002.28,VALID,0,VALID,94.1877,VALID,0,VALID,22.9013,VALID,68,VALID,0.395312,
2010-01-20, 02:57:04,VALID,1002.25,VALID,0,VALID,94.1953,VALID,0,VALID,22.9013,VALID,68,VALID,0.280469,
2010-01-20, 02:58:04,VALID,1002.23,VALID,0,VALID,94.2029,VALID,0,VALID,22.9208,VALID,69,VALID,0.288672,
2010-01-20, 02:59:04,VALID,1002.25,VALID,0,VALID,94.2029,VALID,0,VALID,22.8995,VALID,69,VALID,0.127344,
2010-01-20, 03:00:04,VALID,1002.23,VALID,0,VALID,94.18,VALID,0,VALID,22.9013,VALID,69,VALID,0.0941406,
2010-01-20, 03:01:04,VALID,1002.22,VALID,0,VALID,94.2182,VALID,0,VALID,22.9013,VALID,69,VALID,0.341797,
2010-01-20, 03:02:04,VALID,1002.24,VALID,0,VALID,94.2334,VALID,0,VALID,22.919,VALID,69,VALID,0.388672,
2010-01-20, 03:03:04,VALID,1002.21,VALID,0,VALID,94.264,VALID,0,VALID,22.9793,VALID,69,VALID,0.457812,
2010-01-20, 03:04:04,VALID,1002.21,VALID,0,VALID,94.2411,VALID,0,VALID,23.0378,VALID,113,VALID,0.419922,
2010-01-20, 03:05:04,VALID,1002.13,VALID,0,VALID,94.2334,VALID,0,VALID,23.0573,VALID,118,VALID,0.242969,
2010-01-20, 03:06:04,VALID,1002.16,VALID,0,VALID,94.2105,VALID,0,VALID,23.0378,VALID,118,VALID,0.0570313,
2010-01-20, 03:07:04,VALID,1002.16,VALID,0,VALID,94.2105,VALID,0,VALID,23.0378,VALID,114,VALID,0.514844,
2010-01-20, 03:08:04,VALID,1002.16,VALID,0,VALID,94.2182,VALID,0,VALID,23.0378,VALID,111,VALID,0.605078,
2010-01-20, 03:09:04,VALID,1002.15,VALID,0,VALID,94.2258,VALID,0,VALID,23.0378,VALID,106,VALID,0.58125,
2010-01-20, 03:10:04,VALID,1002.13,VALID,0,VALID,94.2487,VALID,0,VALID,23.0166,VALID,115,VALID,0.737891,
2010-01-20, 03:11:04,VALID,1002.11,VALID,0,VALID,94.2334,VALID,0,VALID,23.0573,VALID,97,VALID,0.528125,
2010-01-20, 03:12:04,VALID,1002.1,VALID,0,VALID,94.2334,VALID,0,VALID,23.0573,VALID,96,VALID,0.501562,
2010-01-20, 03:13:04,VALID,1002.07,VALID,0,VALID,94.2105,VALID,0,VALID,23.0573,VALID,96,VALID,0.332422,
2010-01-20, 03:14:04,VALID,1002,VALID,0,VALID,94.2334,VALID,0,VALID,23.0573,VALID,106,VALID,0.467187,
2010-01-20, 03:15:04,VALID,1001.99,VALID,0,VALID,94.2411,VALID,0,VALID,23.0769,VALID,127,VALID,0.548828,
2010-01-20, 03:16:04,VALID,1001.99,VALID,0,VALID,94.2487,VALID,0,VALID,23.0556,VALID,116,VALID,0.917188,
2010-01-20, 03:17:04,VALID,1001.98,VALID,0,VALID,94.264,VALID,0,VALID,23.1159,VALID,116,VALID,1.08086,
2010-01-20, 03:18:04,VALID,1001.99,VALID,0,VALID,94.2563,VALID,0,VALID,23.1141,VALID,96,VALID,0.621484,
2010-01-20, 03:19:04,VALID,1002.03,VALID,0,VALID,94.2716,VALID,0.112286,VALID,23.1354,VALID,109,VALID,0.942578,
2010-01-20, 03:20:04,VALID,1002.02,VALID,0,VALID,94.2334,VALID,0,VALID,23.1354,VALID,103,VALID,0.630078,
2010-01-20, 03:21:04,VALID,1002.04,VALID,0,VALID,94.2334,VALID,0,VALID,23.1336,VALID,101,VALID,0.733594,
2010-01-20, 03:22:04,VALID,1002.02,VALID,0,VALID,94.2411,VALID,0,VALID,23.1744,VALID,122,VALID,0.727734,
2010-01-20, 03:23:04,VALID,1001.99,VALID,0,VALID,94.2411,VALID,0,VALID,23.1939,VALID,128,VALID,0.929688,
2010-01-20, 03:24:04,VALID,1001.97,VALID,0,VALID,94.2411,VALID,0,VALID,23.1939,VALID,120,VALID,0.0980469,
2010-01-20, 03:25:04,VALID,1001.99,VALID,0,VALID,94.2182,VALID,0,VALID,23.1744,VALID,120,VALID,0.321484,
2010-01-20, 03:26:04,VALID,1001.99,VALID,0,VALID,94.18,VALID,0,VALID,23.0964,VALID,120,VALID,0.355859,
2010-01-20, 03:27:04,VALID,1002.04,VALID,0,VALID,94.1877,VALID,0,VALID,22.9971,VALID,64,VALID,0.344922,
2010-01-20, 03:28:04,VALID,1002.04,VALID,0,VALID,94.1953,VALID,0,VALID,22.9385,VALID,40,VALID,0.437891,
2010-01-20, 03:29:04,VALID,1002.08,VALID,0,VALID,94.2182,VALID,0,VALID,22.9208,VALID,341,VALID,0.568359,
2010-01-20, 03:30:04,VALID,1002.09,VALID,0,VALID,94.2334,VALID,0,VALID,22.9403,VALID,341,VALID,0.750781,
2010-01-20, 03:31:04,VALID,1002.14,VALID,0,VALID,94.2411,VALID,0,VALID,22.9403,VALID,341,VALID,0.739844,
2010-01-20, 03:32:04,VALID,1002.11,VALID,0,VALID,94.2411,VALID,0,VALID,22.9793,VALID,341,VALID,0.378906,
2010-01-20, 03:33:04,VALID,1002.07,VALID,0,VALID,94.2411,VALID,0,VALID,22.9598,VALID,341,VALID,0.502344,
2010-01-20, 03:34:04,VALID,1002.08,VALID,0,VALID,94.2792,VALID,0,VALID,22.9793,VALID,341,VALID,0.414844,
2010-01-20, 03:35:04,VALID,1002.07,VALID,0,VALID,94.2563,VALID,0,VALID,23.0183,VALID,341,VALID,0.05625,
2010-01-20, 03:36:04,VALID,1002.08,VALID,0,VALID,94.2334,VALID,0,VALID,23.0166,VALID,341,VALID,0,
2010-01-20, 03:37:04,VALID,1002.07,VALID,0,VALID,94.2487,VALID,0,VALID,23.0166,VALID,341,VALID,0,
2010-01-20, 03:38:04,VALID,1002.02,VALID,0,VALID,94.2563,VALID,0,VALID,23.0573,VALID,341,VALID,0,
2010-01-20, 03:39:04,VALID,1002,VALID,0,VALID,94.2487,VALID,0,VALID,23.0378,VALID,341,VALID,0,
2010-01-20, 03:40:04,VALID,1001.96,VALID,0,VALID,94.2334,VALID,0,VALID,23.0378,VALID,341,VALID,0,
2010-01-20, 03:41:04,VALID,1001.95,VALID,0,VALID,94.2563,VALID,0,VALID,23.0378,VALID,341,VALID,0,
2010-01-20, 03:42:04,VALID,1001.97,VALID,0,VALID,94.264,VALID,0,VALID,23.0573,VALID,341,VALID,0,
2010-01-20, 03:43:04,VALID,1001.96,VALID,0,VALID,94.2411,VALID,0,VALID,23.0573,VALID,341,VALID,0,
2010-01-20, 03:44:04,VALID,1001.97,VALID,0,VALID,94.2411,VALID,0,VALID,23.0361,VALID,341,VALID,0,
2010-01-20, 03:45:04,VALID,1002.03,VALID,0,VALID,94.2334,VALID,0,VALID,23.0573,VALID,341,VALID,0.493359,
2010-01-20, 03:46:04,VALID,1002.01,VALID,0,VALID,94.2105,VALID,0,VALID,22.9793,VALID,8,VALID,0.633203,
2010-01-20, 03:47:04,VALID,1002,VALID,0,VALID,94.2563,VALID,0,VALID,22.9793,VALID,8,VALID,0.658594,